GIA4212 WAAA-WIMM

Flight info

Callsign GIA4212
Flight time 3h 1m
Altitude 30000
Route GURNI W35 PNK L504 OBDOS M774 OTLAL DCT TPG A464 IRTAD DCT SAMKO R469 ASUNA L762 AKPAG
Aircraft B738/M-SDE2E3FGHIRWXY/LB1

Departure

Time 2026-04-24 07:05
Airport Sultan Hasanuddin International Airport (WAAA)

Arrival

Time 2026-04-24 10:06
Airport Kualanamu International Airport (WIMM)
Time Latitude Longitude Altitude Speed Heading
2026-04-24 06:43 -5.07864 119.54674 65 ft 0 kts 300°
2026-04-24 06:54 -5.07867 119.54678 65 ft 2 kts 299°
2026-04-24 06:54 -5.07874 119.54691 65 ft 2 kts 298°
2026-04-24 06:54 -5.07881 119.54705 65 ft 2 kts 299°
2026-04-24 06:55 -5.07888 119.54716 65 ft 2 kts 296°
2026-04-24 06:55 -5.07892 119.54730 65 ft 2 kts 275°
2026-04-24 06:55 -5.07892 119.54745 65 ft 2 kts 259°
2026-04-24 06:55 -5.07887 119.54760 65 ft 2 kts 243°
2026-04-24 06:56 -5.07879 119.54772 65 ft 2 kts 227°
2026-04-24 06:56 -5.07868 119.54782 65 ft 2 kts 211°
2026-04-24 06:56 -5.07854 119.54789 65 ft 2 kts 209°
2026-04-24 06:56 -5.07851 119.54791 65 ft 0 kts 210°
2026-04-24 06:58 -5.07857 119.54787 65 ft 1 kts 210°
2026-04-24 06:58 -5.07880 119.54775 65 ft 6 kts 210°
2026-04-24 06:59 -5.07932 119.54745 65 ft 10 kts 208°
2026-04-24 06:59 -5.08002 119.54752 65 ft 10 kts 136°
2026-04-24 06:59 -5.08042 119.54811 65 ft 11 kts 120°
2026-04-24 06:59 -5.08105 119.54842 65 ft 10 kts 196°
2026-04-24 07:00 -5.08178 119.54807 65 ft 13 kts 210°
2026-04-24 07:00 -5.08270 119.54752 65 ft 17 kts 210°
2026-04-24 07:00 -5.08373 119.54692 65 ft 16 kts 208°
2026-04-24 07:00 -5.08472 119.54636 64 ft 16 kts 210°
2026-04-24 07:01 -5.08568 119.54580 64 ft 15 kts 209°
2026-04-24 07:01 -5.08662 119.54527 64 ft 15 kts 211°
2026-04-24 07:01 -5.08752 119.54476 64 ft 14 kts 210°
2026-04-24 07:01 -5.08835 119.54427 64 ft 13 kts 210°
2026-04-24 07:02 -5.08911 119.54383 64 ft 11 kts 210°
2026-04-24 07:02 -5.08980 119.54343 64 ft 10 kts 210°
2026-04-24 07:02 -5.09041 119.54308 64 ft 9 kts 210°
2026-04-24 07:02 -5.09094 119.54279 64 ft 8 kts 200°
2026-04-24 07:03 -5.09143 119.54285 64 ft 6 kts 147°
2026-04-24 07:03 -5.09170 119.54319 64 ft 6 kts 119°
2026-04-24 07:03 -5.09192 119.54358 64 ft 6 kts 118°
2026-04-24 07:03 -5.09201 119.54398 64 ft 6 kts 81°
2026-04-24 07:04 -5.09152 119.54449 64 ft 17 kts 27°
2026-04-24 07:04 -5.08851 119.54620 64 ft 88 kts 28°
2026-04-24 07:04 -5.08105 119.55051 66 ft 156 kts 30°
2026-04-24 07:04 -5.07022 119.55696 262 ft 194 kts 29°
2026-04-24 07:05 -5.05847 119.56373 1055 ft 199 kts 26°
2026-04-24 07:05 -5.04538 119.56824 1826 ft 204 kts 10°
2026-04-24 07:05 -5.03154 119.56853 2637 ft 200 kts 353°
2026-04-24 07:05 -5.01769 119.56435 3102 ft 216 kts 340°
2026-04-24 07:06 -5.00281 119.55962 3524 ft 234 kts 350°
2026-04-24 07:06 -4.98613 119.55785 4048 ft 248 kts
2026-04-24 07:06 -4.96818 119.55798 4663 ft 260 kts
2026-04-24 07:06 -4.94984 119.55730 5329 ft 271 kts 352°
2026-04-24 07:07 -4.93141 119.55240 6116 ft 277 kts 343°
2026-04-24 07:07 -4.91333 119.54556 6925 ft 279 kts 340°
2026-04-24 07:07 -4.87765 119.52900 8388 ft 291 kts 326°
2026-04-24 07:08 -4.86390 119.51399 9078 ft 300 kts 302°
2026-04-24 07:08 -4.85512 119.49497 9784 ft 306 kts 292°
2026-04-24 07:08 -4.84775 119.47482 10456 ft 312 kts 292°
2026-04-24 07:08 -4.83993 119.45417 10902 ft 325 kts 293°
2026-04-24 07:09 -4.83116 119.43281 11270 ft 340 kts 294°
2026-04-24 07:09 -4.82148 119.41045 11652 ft 355 kts 295°
2026-04-24 07:09 -4.81134 119.38747 12050 ft 368 kts 295°
2026-04-24 07:09 -4.80083 119.36375 12621 ft 374 kts 295°
2026-04-24 07:10 -4.79035 119.34003 13248 ft 378 kts 295°
2026-04-24 07:10 -4.77961 119.31567 13851 ft 382 kts 294°
2026-04-24 07:10 -4.76884 119.29116 14406 ft 388 kts 294°
2026-04-24 07:10 -4.75795 119.26636 15032 ft 391 kts 294°
2026-04-24 07:11 -4.74698 119.24137 15553 ft 397 kts 294°
2026-04-24 07:11 -4.73587 119.21609 16139 ft 400 kts 294°
2026-04-24 07:11 -4.72453 119.19026 16670 ft 404 kts 294°
2026-04-24 07:11 -4.71321 119.16450 16802 ft 409 kts 294°
2026-04-24 07:12 -4.70163 119.13811 17226 ft 414 kts 294°
2026-04-24 07:12 -4.69006 119.11175 17886 ft 414 kts 294°
2026-04-24 07:12 -4.67840 119.08521 18500 ft 415 kts 294°
2026-04-24 07:12 -4.66687 119.05894 18988 ft 419 kts 294°
2026-04-24 07:13 -4.65497 119.03184 19471 ft 422 kts 294°
2026-04-24 07:13 -4.64324 119.00517 20019 ft 424 kts 294°
2026-04-24 07:13 -4.63118 118.97776 20471 ft 428 kts 294°
2026-04-24 07:13 -4.61934 118.95086 20952 ft 430 kts 294°
2026-04-24 07:14 -4.60718 118.92322 21426 ft 432 kts 294°
2026-04-24 07:14 -4.59495 118.89545 21848 ft 436 kts 294°
2026-04-24 07:14 -4.58275 118.86771 22281 ft 438 kts 294°
2026-04-24 07:14 -4.57050 118.83986 22682 ft 442 kts 294°
2026-04-24 07:15 -4.55813 118.81175 23112 ft 445 kts 294°
2026-04-24 07:15 -4.54557 118.78322 23542 ft 447 kts 294°
2026-04-24 07:15 -4.53302 118.75468 23951 ft 450 kts 295°
2026-04-24 07:15 -4.52083 118.72559 24339 ft 453 kts 292°
2026-04-24 07:16 -4.50953 118.69613 24694 ft 457 kts 291°
2026-04-24 07:16 -4.49861 118.66612 25142 ft 458 kts 290°
2026-04-24 07:16 -4.48780 118.63579 25533 ft 461 kts 291°
2026-04-24 07:16 -4.47701 118.60546 25874 ft 464 kts 291°
2026-04-24 07:17 -4.46609 118.57493 26272 ft 466 kts 291°
2026-04-24 07:17 -4.45517 118.54459 26669 ft 468 kts 291°
2026-04-24 07:17 -4.44406 118.51395 27030 ft 470 kts 291°
2026-04-24 07:17 -4.43281 118.48310 27355 ft 473 kts 291°
2026-04-24 07:18 -4.42144 118.45204 27697 ft 476 kts 291°
2026-04-24 07:18 -4.41000 118.42088 28048 ft 478 kts 291°
2026-04-24 07:18 -4.39844 118.38944 28399 ft 480 kts 291°
2026-04-24 07:18 -4.38705 118.35845 28933 ft 477 kts 291°
2026-04-24 07:19 -4.37565 118.32741 29399 ft 476 kts 292°
2026-04-24 07:19 -4.36426 118.29639 29753 ft 477 kts 292°
2026-04-24 07:19 -4.34121 118.23366 29798 ft 476 kts 292°
2026-04-24 07:20 -4.31830 118.17133 29799 ft 481 kts 292°
2026-04-24 07:20 -4.29490 118.10774 29800 ft 496 kts 292°
2026-04-24 07:21 -4.27090 118.04254 29797 ft 499 kts 291°
2026-04-24 07:21 -4.24690 117.97724 29794 ft 499 kts 292°
2026-04-24 07:22 -4.22295 117.91210 29791 ft 499 kts 292°
2026-04-24 07:22 -4.19898 117.84694 29804 ft 499 kts 292°
2026-04-24 07:23 -4.17493 117.78164 29804 ft 499 kts 292°
2026-04-24 07:23 -4.15090 117.71644 29802 ft 500 kts 292°
2026-04-24 07:24 -4.12704 117.65169 29802 ft 499 kts 291°
2026-04-24 07:24 -4.10298 117.58641 29800 ft 500 kts 292°
2026-04-24 07:25 -4.07889 117.52109 29803 ft 500 kts 292°
2026-04-24 07:25 -4.05483 117.45583 29802 ft 500 kts 292°
2026-04-24 07:26 -4.03079 117.39066 29800 ft 500 kts 291°
2026-04-24 07:26 -4.00663 117.32519 29802 ft 501 kts 292°
2026-04-24 07:27 -3.98269 117.25976 29801 ft 501 kts 290°
2026-04-24 07:27 -3.96424 117.19259 29802 ft 501 kts 284°
2026-04-24 07:28 -3.95008 117.12413 29802 ft 503 kts 282°
2026-04-24 07:28 -3.93671 117.05599 29800 ft 502 kts 282°
2026-04-24 07:29 -3.92278 116.98737 29801 ft 503 kts 283°
2026-04-24 07:29 -3.90844 116.91888 29803 ft 504 kts 283°
2026-04-24 07:30 -3.89398 116.85079 29799 ft 492 kts 283°
2026-04-24 07:30 -3.88695 116.81791 29799 ft 478 kts 283°
2026-04-24 07:30 -3.87984 116.78476 29799 ft 485 kts 283°
2026-04-24 07:31 -3.86547 116.71814 29799 ft 500 kts 283°
2026-04-24 07:31 -3.85079 116.64997 29792 ft 504 kts 283°
2026-04-24 07:32 -3.83603 116.58131 29797 ft 502 kts 283°
2026-04-24 07:32 -3.82133 116.51293 29797 ft 502 kts 283°
2026-04-24 07:33 -3.80672 116.44495 29794 ft 502 kts 283°
2026-04-24 07:33 -3.79201 116.37654 29791 ft 502 kts 283°
2026-04-24 07:34 -3.77736 116.30841 29788 ft 502 kts 283°
2026-04-24 07:34 -3.76268 116.24022 29787 ft 501 kts 283°
2026-04-24 07:35 -3.74806 116.17226 29782 ft 502 kts 283°
2026-04-24 07:35 -3.73337 116.10398 29784 ft 502 kts 283°
2026-04-24 07:36 -3.71870 116.03595 29783 ft 501 kts 283°
2026-04-24 07:36 -3.70400 115.96774 29780 ft 501 kts 283°
2026-04-24 07:37 -3.68917 115.89986 29776 ft 500 kts 285°
2026-04-24 07:37 -3.66377 115.83505 29782 ft 499 kts 298°
2026-04-24 07:38 -3.63053 115.77425 29782 ft 498 kts 301°
2026-04-24 07:38 -3.59664 115.71417 29781 ft 498 kts 300°
2026-04-24 07:39 -3.56362 115.65353 29787 ft 497 kts 299°
2026-04-24 07:39 -3.53116 115.59195 29796 ft 498 kts 298°
2026-04-24 07:40 -3.49934 115.53046 29800 ft 498 kts 298°
2026-04-24 07:40 -3.46782 115.46909 29805 ft 497 kts 298°
2026-04-24 07:41 -3.43631 115.40760 29807 ft 497 kts 298°
2026-04-24 07:41 -3.40480 115.34614 29811 ft 497 kts 298°
2026-04-24 07:42 -3.37327 115.28469 29807 ft 496 kts 298°
2026-04-24 07:42 -3.34166 115.22311 29800 ft 496 kts 298°
2026-04-24 07:43 -3.31025 115.16193 29791 ft 498 kts 298°
2026-04-24 07:43 -3.27856 115.10023 29778 ft 496 kts 298°
2026-04-24 07:44 -3.24728 115.03934 29767 ft 496 kts 298°
2026-04-24 07:44 -3.21565 114.97779 29769 ft 496 kts 298°
2026-04-24 07:45 -3.18431 114.91680 29774 ft 495 kts 298°
2026-04-24 07:45 -3.15268 114.85527 29770 ft 495 kts 298°
2026-04-24 07:46 -3.12128 114.79421 29771 ft 495 kts 298°
2026-04-24 07:46 -3.08982 114.73304 29772 ft 495 kts 298°
2026-04-24 07:47 -3.05815 114.67149 29766 ft 495 kts 298°
2026-04-24 07:47 -3.02527 114.61094 29764 ft 495 kts 300°
2026-04-24 07:48 -2.99116 114.55112 29761 ft 495 kts 301°
2026-04-24 07:48 -2.95690 114.49121 29761 ft 494 kts 300°
2026-04-24 07:49 -2.92297 114.43131 29761 ft 495 kts 300°
2026-04-24 07:49 -2.88932 114.37151 29762 ft 495 kts 300°
2026-04-24 07:50 -2.85565 114.31145 29762 ft 494 kts 300°
2026-04-24 07:50 -2.82203 114.25143 29762 ft 495 kts 300°
2026-04-24 07:51 -2.78831 114.19122 29764 ft 495 kts 300°
2026-04-24 07:51 -2.75476 114.13133 29765 ft 495 kts 300°
2026-04-24 07:52 -2.72126 114.07155 29763 ft 493 kts 300°
2026-04-24 07:52 -2.68764 114.01157 29762 ft 493 kts 300°
2026-04-24 07:53 -2.65411 113.95174 29761 ft 494 kts 300°
2026-04-24 07:53 -2.62036 113.89155 29761 ft 494 kts 300°
2026-04-24 07:54 -2.58847 113.83122 29764 ft 495 kts 296°
2026-04-24 07:54 -2.56088 113.76820 29774 ft 494 kts 293°
2026-04-24 07:55 -2.53463 113.70466 29773 ft 494 kts 293°
2026-04-24 07:55 -2.50824 113.64148 29776 ft 494 kts 294°
2026-04-24 07:56 -2.48116 113.57800 29781 ft 495 kts 294°
2026-04-24 07:56 -2.45403 113.51515 29778 ft 494 kts 294°
2026-04-24 07:57 -2.42670 113.45216 29776 ft 494 kts 294°
2026-04-24 07:57 -2.39930 113.38909 29776 ft 494 kts 294°
2026-04-24 07:58 -2.37198 113.32624 29774 ft 493 kts 294°
2026-04-24 07:58 -2.34475 113.26356 29772 ft 494 kts 294°
2026-04-24 07:59 -2.31734 113.20044 29770 ft 494 kts 294°
2026-04-24 07:59 -2.29008 113.13771 29762 ft 493 kts 294°
2026-04-24 08:00 -2.26278 113.07486 29757 ft 493 kts 294°
2026-04-24 08:00 -2.23539 113.01183 29755 ft 492 kts 294°
2026-04-24 08:01 -2.20816 112.94916 29757 ft 493 kts 294°
2026-04-24 08:01 -2.18095 112.88656 29757 ft 493 kts 294°
2026-04-24 08:02 -2.15363 112.82372 29758 ft 493 kts 294°
2026-04-24 08:02 -2.12630 112.76086 29761 ft 493 kts 294°
2026-04-24 08:03 -2.09898 112.69801 29763 ft 494 kts 294°
2026-04-24 08:03 -2.07164 112.63514 29767 ft 494 kts 294°
2026-04-24 08:04 -2.04439 112.57250 29769 ft 494 kts 294°
2026-04-24 08:04 -2.01691 112.50932 29767 ft 494 kts 294°
2026-04-24 08:05 -1.98965 112.44663 29771 ft 494 kts 294°
2026-04-24 08:05 -1.96222 112.38360 29775 ft 493 kts 294°
2026-04-24 08:06 -1.93487 112.32076 29781 ft 494 kts 294°
2026-04-24 08:06 -1.90755 112.25797 29784 ft 494 kts 294°
2026-04-24 08:07 -1.88027 112.19527 29786 ft 494 kts 294°
2026-04-24 08:07 -1.85276 112.13205 29790 ft 494 kts 294°
2026-04-24 08:08 -1.82548 112.06938 29790 ft 494 kts 294°
2026-04-24 08:09 -1.78427 111.97472 29789 ft 495 kts 294°
2026-04-24 08:09 -1.75694 111.91197 29788 ft 493 kts 294°
2026-04-24 08:10 -1.72949 111.84893 29792 ft 495 kts 294°
2026-04-24 08:10 -1.70206 111.78592 29796 ft 495 kts 294°
2026-04-24 08:11 -1.67468 111.72309 29801 ft 495 kts 294°
2026-04-24 08:11 -1.64716 111.65993 29802 ft 495 kts 294°
2026-04-24 08:12 -1.61982 111.59716 29802 ft 496 kts 294°
2026-04-24 08:12 -1.59230 111.53402 29795 ft 495 kts 294°
2026-04-24 08:13 -1.56475 111.47076 29792 ft 496 kts 294°
2026-04-24 08:13 -1.53736 111.40791 29791 ft 495 kts 294°
2026-04-24 08:14 -1.50989 111.34489 29790 ft 495 kts 294°
2026-04-24 08:14 -1.48236 111.28176 29789 ft 495 kts 294°
2026-04-24 08:15 -1.45477 111.21847 29792 ft 496 kts 294°
2026-04-24 08:15 -1.42744 111.15580 29798 ft 495 kts 293°
2026-04-24 08:16 -1.39997 111.09278 29796 ft 496 kts 293°
2026-04-24 08:16 -1.37241 111.02959 29805 ft 494 kts 293°
2026-04-24 08:17 -1.34494 110.96659 29802 ft 494 kts 293°
2026-04-24 08:17 -1.31747 110.90358 29802 ft 495 kts 294°
2026-04-24 08:18 -1.28992 110.84043 29795 ft 496 kts 294°
2026-04-24 08:18 -1.26264 110.77787 29790 ft 495 kts 294°
2026-04-24 08:19 -1.23525 110.71509 29783 ft 495 kts 294°
2026-04-24 08:19 -1.20762 110.65179 29781 ft 494 kts 294°
2026-04-24 08:20 -1.18007 110.58865 29778 ft 495 kts 294°
2026-04-24 08:20 -1.15260 110.52570 29778 ft 495 kts 294°
2026-04-24 08:21 -1.12512 110.46272 29780 ft 496 kts 294°
2026-04-24 08:21 -1.09777 110.40003 29783 ft 496 kts 294°
2026-04-24 08:22 -1.07041 110.33733 29787 ft 495 kts 294°
2026-04-24 08:22 -1.04357 110.27583 29788 ft 495 kts 294°
2026-04-24 08:23 -1.01656 110.21394 29788 ft 495 kts 294°
2026-04-24 08:23 -0.98897 110.15073 29781 ft 496 kts 294°
2026-04-24 08:24 -0.96134 110.08744 29776 ft 496 kts 294°
2026-04-24 08:24 -0.93375 110.02425 29773 ft 496 kts 294°
2026-04-24 08:25 -0.90629 109.96140 29768 ft 495 kts 294°
2026-04-24 08:25 -0.87874 109.89830 29772 ft 495 kts 294°
2026-04-24 08:26 -0.85126 109.83536 29771 ft 495 kts 294°
2026-04-24 08:26 -0.82373 109.77228 29770 ft 495 kts 294°
2026-04-24 08:27 -0.79630 109.70946 29772 ft 496 kts 294°
2026-04-24 08:27 -0.76863 109.64609 29773 ft 496 kts 294°
2026-04-24 08:28 -0.74091 109.58262 29775 ft 497 kts 294°
2026-04-24 08:28 -0.71349 109.51983 29776 ft 497 kts 294°
2026-04-24 08:29 -0.68572 109.45624 29777 ft 496 kts 294°
2026-04-24 08:29 -0.65808 109.39296 29780 ft 498 kts 294°
2026-04-24 08:30 -0.63055 109.32995 29782 ft 496 kts 294°
2026-04-24 08:30 -0.60278 109.26640 29781 ft 498 kts 294°
2026-04-24 08:31 -0.57523 109.20333 29778 ft 496 kts 294°
2026-04-24 08:31 -0.54739 109.13963 29778 ft 497 kts 294°
2026-04-24 08:32 -0.51971 109.07626 29775 ft 499 kts 294°
2026-04-24 08:32 -0.49212 109.01314 29777 ft 497 kts 294°
2026-04-24 08:33 -0.46433 108.94952 29782 ft 499 kts 294°
2026-04-24 08:33 -0.43667 108.88618 29784 ft 499 kts 294°
2026-04-24 08:34 -0.40890 108.82262 29779 ft 498 kts 294°
2026-04-24 08:34 -0.38114 108.75910 29782 ft 499 kts 294°
2026-04-24 08:35 -0.35358 108.69603 29783 ft 498 kts 294°
2026-04-24 08:35 -0.32591 108.63271 29782 ft 499 kts 294°
2026-04-24 08:36 -0.29798 108.56880 29781 ft 499 kts 294°
2026-04-24 08:36 -0.27041 108.50568 29787 ft 498 kts 294°
2026-04-24 08:37 -0.24261 108.44208 29788 ft 498 kts 294°
2026-04-24 08:37 -0.21492 108.37869 29791 ft 499 kts 294°
2026-04-24 08:38 -0.18729 108.31548 29793 ft 499 kts 294°
2026-04-24 08:38 -0.16045 108.25269 29792 ft 499 kts 291°
2026-04-24 08:39 -0.14144 108.18553 29796 ft 505 kts 283°
2026-04-24 08:39 -0.12751 108.11681 29799 ft 506 kts 281°
2026-04-24 08:40 -0.11388 108.04784 29800 ft 505 kts 282°
2026-04-24 08:40 -0.09943 107.97938 29802 ft 505 kts 282°
2026-04-24 08:41 -0.08420 107.91081 29802 ft 504 kts 283°
2026-04-24 08:41 -0.06872 107.84274 29794 ft 504 kts 283°
2026-04-24 08:42 -0.05312 107.77453 29787 ft 504 kts 283°
2026-04-24 08:42 -0.03752 107.70631 29785 ft 504 kts 283°
2026-04-24 08:43 -0.02201 107.63836 29789 ft 504 kts 283°
2026-04-24 08:43 -0.00645 107.57018 29786 ft 503 kts 283°
2026-04-24 08:44 0.00911 107.50192 29781 ft 501 kts 283°
2026-04-24 08:44 0.02463 107.43390 29781 ft 502 kts 283°
2026-04-24 08:45 0.04001 107.36644 29781 ft 502 kts 283°
2026-04-24 08:45 0.05551 107.29843 29780 ft 501 kts 283°
2026-04-24 08:46 0.07099 107.23051 29781 ft 500 kts 283°
2026-04-24 08:46 0.08646 107.16268 29780 ft 500 kts 283°
2026-04-24 08:47 0.10183 107.09524 29781 ft 499 kts 283°
2026-04-24 08:47 0.11717 107.02797 29781 ft 499 kts 283°
2026-04-24 08:48 0.13249 106.96074 29781 ft 499 kts 283°
2026-04-24 08:48 0.14792 106.89307 29781 ft 499 kts 283°
2026-04-24 08:49 0.16331 106.82554 29781 ft 499 kts 283°
2026-04-24 08:49 0.17870 106.75803 29781 ft 500 kts 283°
2026-04-24 08:50 0.19414 106.69031 29783 ft 500 kts 283°
2026-04-24 08:50 0.20952 106.62282 29793 ft 499 kts 283°
2026-04-24 08:51 0.22495 106.55510 29801 ft 499 kts 283°
2026-04-24 08:51 0.24033 106.48762 29802 ft 499 kts 283°
2026-04-24 08:52 0.25580 106.41979 29801 ft 499 kts 283°
2026-04-24 08:52 0.27123 106.35210 29801 ft 501 kts 283°
2026-04-24 08:53 0.28666 106.28446 29802 ft 501 kts 282°
2026-04-24 08:53 0.30206 106.21687 29801 ft 500 kts 282°
2026-04-24 08:54 0.31749 106.14915 29801 ft 499 kts 282°
2026-04-24 08:54 0.33295 106.08130 29801 ft 500 kts 282°
2026-04-24 08:55 0.34833 106.01380 29801 ft 501 kts 282°
2026-04-24 08:55 0.36383 105.94578 29801 ft 501 kts 282°
2026-04-24 08:56 0.37923 105.87823 29801 ft 502 kts 282°
2026-04-24 08:56 0.39477 105.81001 29792 ft 501 kts 282°
2026-04-24 08:57 0.41018 105.74241 29785 ft 500 kts 282°
2026-04-24 08:57 0.42557 105.67486 29782 ft 501 kts 282°
2026-04-24 08:58 0.44102 105.60704 29782 ft 502 kts 282°
2026-04-24 08:58 0.45653 105.53896 29783 ft 502 kts 282°
2026-04-24 08:59 0.47196 105.47124 29781 ft 501 kts 282°
2026-04-24 08:59 0.48743 105.40334 29782 ft 502 kts 282°
2026-04-24 09:00 0.50275 105.33612 29780 ft 501 kts 282°
2026-04-24 09:00 0.51814 105.26856 29782 ft 501 kts 282°
2026-04-24 09:01 0.53365 105.20049 29784 ft 502 kts 282°
2026-04-24 09:01 0.54920 105.13222 29781 ft 503 kts 282°
2026-04-24 09:02 0.56460 105.06461 29782 ft 502 kts 282°
2026-04-24 09:02 0.58009 104.99661 29789 ft 501 kts 282°
2026-04-24 09:03 0.59550 104.92896 29799 ft 500 kts 282°
2026-04-24 09:03 0.61096 104.86108 29801 ft 501 kts 282°
2026-04-24 09:04 0.62628 104.79382 29799 ft 499 kts 282°
2026-04-24 09:04 0.64174 104.72591 29798 ft 500 kts 282°
2026-04-24 09:05 0.65711 104.65839 29796 ft 500 kts 282°
2026-04-24 09:05 0.67242 104.59113 29796 ft 500 kts 282°
2026-04-24 09:06 0.68796 104.52291 29795 ft 500 kts 282°
2026-04-24 09:06 0.70332 104.45541 29795 ft 499 kts 282°
2026-04-24 09:07 0.71863 104.38811 29797 ft 499 kts 282°
2026-04-24 09:07 0.74191 104.28582 29795 ft 505 kts 282°
2026-04-24 09:08 0.75745 104.21755 29795 ft 505 kts 282°
2026-04-24 09:08 0.77297 104.14938 29790 ft 505 kts 281°
2026-04-24 09:09 0.78849 104.08124 29788 ft 505 kts 281°
2026-04-24 09:09 0.80404 104.01289 29785 ft 504 kts 282°
2026-04-24 09:10 0.81959 103.94456 29786 ft 505 kts 281°
2026-04-24 09:10 0.83504 103.87663 29783 ft 504 kts 281°
2026-04-24 09:11 0.85057 103.80835 29783 ft 504 kts 282°
2026-04-24 09:11 0.86614 103.73992 29782 ft 504 kts 282°
2026-04-24 09:12 0.88163 103.67181 29783 ft 504 kts 282°
2026-04-24 09:12 0.89716 103.60352 29781 ft 505 kts 282°
2026-04-24 09:13 0.91279 103.53479 29781 ft 505 kts 282°
2026-04-24 09:13 0.92824 103.46686 29782 ft 505 kts 282°
2026-04-24 09:14 0.94376 103.39856 29782 ft 505 kts 282°
2026-04-24 09:14 0.95935 103.32999 29781 ft 504 kts 282°
2026-04-24 09:15 0.97483 103.26190 29782 ft 505 kts 282°
2026-04-24 09:15 0.99045 103.19359 29782 ft 504 kts 282°
2026-04-24 09:16 1.00992 103.12650 29782 ft 506 kts 288°
2026-04-24 09:16 1.03498 103.06069 29780 ft 506 kts 291°
2026-04-24 09:17 1.06138 102.99577 29777 ft 507 kts 291°
2026-04-24 09:17 1.08776 102.93060 29764 ft 506 kts 291°
2026-04-24 09:18 1.11384 102.86513 29763 ft 505 kts 291°
2026-04-24 09:18 1.13959 102.79967 29770 ft 505 kts 291°
2026-04-24 09:19 1.16506 102.73450 29773 ft 506 kts 291°
2026-04-24 09:19 1.19067 102.66885 29769 ft 507 kts 291°
2026-04-24 09:20 1.22043 102.59251 29770 ft 508 kts 291°
2026-04-24 09:20 1.24175 102.53786 29769 ft 506 kts 291°
2026-04-24 09:21 1.26738 102.47214 29769 ft 507 kts 291°
2026-04-24 09:21 1.29280 102.40698 29768 ft 506 kts 291°
2026-04-24 09:22 1.31836 102.34147 29769 ft 506 kts 291°
2026-04-24 09:22 1.34612 102.27692 29770 ft 507 kts 297°
2026-04-24 09:23 1.38127 102.21529 29765 ft 508 kts 301°
2026-04-24 09:23 1.41797 102.15543 29763 ft 507 kts 301°
2026-04-24 09:24 1.45451 102.09510 29763 ft 508 kts 301°
2026-04-24 09:24 1.49036 102.03449 29769 ft 507 kts 300°
2026-04-24 09:25 1.52597 101.97327 29772 ft 506 kts 300°
2026-04-24 09:25 1.56098 101.91262 29773 ft 507 kts 300°
2026-04-24 09:26 1.59628 101.85132 29773 ft 507 kts 300°
2026-04-24 09:26 1.63137 101.79035 29777 ft 507 kts 300°
2026-04-24 09:27 1.66652 101.72931 29777 ft 506 kts 300°
2026-04-24 09:27 1.70167 101.66829 29777 ft 506 kts 300°
2026-04-24 09:28 1.73685 101.60722 29781 ft 506 kts 300°
2026-04-24 09:28 1.77183 101.54649 29780 ft 507 kts 300°
2026-04-24 09:29 1.80720 101.48509 29778 ft 507 kts 300°
2026-04-24 09:29 1.84215 101.42442 29772 ft 506 kts 300°
2026-04-24 09:30 1.88308 101.35335 29764 ft 506 kts 300°
2026-04-24 09:30 1.91249 101.30228 29763 ft 507 kts 300°
2026-04-24 09:31 1.94761 101.24128 29762 ft 507 kts 299°
2026-04-24 09:31 1.98284 101.18009 29761 ft 507 kts 300°
2026-04-24 09:32 2.01808 101.11887 29761 ft 507 kts 300°
2026-04-24 09:32 2.05319 101.05787 29763 ft 506 kts 300°
2026-04-24 09:33 2.08678 100.99621 29762 ft 506 kts 296°
2026-04-24 09:33 2.11683 100.93295 29760 ft 505 kts 294°
2026-04-24 09:34 2.14614 100.86912 29761 ft 505 kts 294°
2026-04-24 09:34 2.17571 100.80557 29762 ft 506 kts 295°
2026-04-24 09:35 2.20579 100.74200 29762 ft 506 kts 295°
2026-04-24 09:35 2.23618 100.67838 29766 ft 506 kts 295°
2026-04-24 09:36 2.26649 100.61515 29768 ft 506 kts 295°
2026-04-24 09:36 2.29701 100.55154 29771 ft 505 kts 295°
2026-04-24 09:37 2.32738 100.48818 29773 ft 505 kts 295°
2026-04-24 09:37 2.35753 100.42526 29775 ft 505 kts 295°
2026-04-24 09:38 2.38807 100.36150 29773 ft 506 kts 295°
2026-04-24 09:38 2.41834 100.29829 29772 ft 506 kts 295°
2026-04-24 09:39 2.44868 100.23494 29775 ft 506 kts 295°
2026-04-24 09:39 2.47912 100.17138 29779 ft 505 kts 295°
2026-04-24 09:40 2.50931 100.10830 29781 ft 506 kts 295°
2026-04-24 09:40 2.52466 100.07622 29569 ft 507 kts 295°
2026-04-24 09:40 2.53987 100.04444 29314 ft 505 kts 295°
2026-04-24 09:41 2.55482 100.01321 29065 ft 505 kts 295°
2026-04-24 09:41 2.57016 99.98115 28809 ft 506 kts 295°
2026-04-24 09:41 2.58541 99.94928 28556 ft 508 kts 295°
2026-04-24 09:41 2.60051 99.91773 28312 ft 509 kts 295°
2026-04-24 09:42 2.61595 99.88547 28066 ft 510 kts 295°
2026-04-24 09:42 2.63121 99.85356 27822 ft 510 kts 295°
2026-04-24 09:42 2.64637 99.82187 27579 ft 508 kts 295°
2026-04-24 09:42 2.66163 99.78998 27336 ft 510 kts 295°
2026-04-24 09:43 2.67697 99.75791 27091 ft 510 kts 295°
2026-04-24 09:43 2.69234 99.72577 26846 ft 510 kts 295°
2026-04-24 09:43 2.70765 99.69374 26576 ft 511 kts 295°
2026-04-24 09:43 2.72284 99.66199 25969 ft 512 kts 295°
2026-04-24 09:44 2.73828 99.62970 25256 ft 510 kts 295°
2026-04-24 09:44 2.75344 99.59798 24518 ft 507 kts 295°
2026-04-24 09:44 2.76859 99.56629 23771 ft 502 kts 295°
2026-04-24 09:44 2.78335 99.53539 23040 ft 486 kts 296°
2026-04-24 09:45 2.79776 99.50524 22270 ft 476 kts 296°
2026-04-24 09:45 2.81165 99.47605 21603 ft 458 kts 296°
2026-04-24 09:45 2.82508 99.44779 20924 ft 442 kts 296°
2026-04-24 09:45 2.83796 99.42080 20264 ft 429 kts 296°
2026-04-24 09:46 2.85061 99.39436 19607 ft 417 kts 296°
2026-04-24 09:46 2.86313 99.36819 18942 ft 415 kts 296°
2026-04-24 09:46 2.87557 99.34221 18302 ft 419 kts 295°
2026-04-24 09:46 2.88802 99.31616 17682 ft 418 kts 295°
2026-04-24 09:47 2.90067 99.28973 16967 ft 420 kts 295°
2026-04-24 09:47 2.91316 99.26363 16299 ft 419 kts 295°
2026-04-24 09:47 2.92582 99.23721 15626 ft 418 kts 295°
2026-04-24 09:47 2.93826 99.21124 14931 ft 413 kts 295°
2026-04-24 09:48 2.95050 99.18566 14302 ft 398 kts 295°
2026-04-24 09:48 2.96216 99.16141 13687 ft 385 kts 296°
2026-04-24 09:48 2.97455 99.13797 13110 ft 371 kts 301°
2026-04-24 09:48 2.98857 99.11764 12942 ft 348 kts 309°
2026-04-24 09:49 3.00456 99.09927 12210 ft 348 kts 314°
2026-04-24 09:49 3.02158 99.08216 11652 ft 347 kts 316°
2026-04-24 09:49 3.03912 99.06532 11033 ft 351 kts 317°
2026-04-24 09:49 3.05676 99.04844 10436 ft 352 kts 316°
2026-04-24 09:50 3.07431 99.03144 9847 ft 354 kts 316°
2026-04-24 09:50 3.09195 99.01414 9257 ft 354 kts 316°
2026-04-24 09:50 3.10948 98.99679 8665 ft 355 kts 315°
2026-04-24 09:50 3.12686 98.97952 8235 ft 349 kts 315°
2026-04-24 09:51 3.14378 98.96265 7960 ft 331 kts 315°
2026-04-24 09:51 3.15962 98.94682 7774 ft 315 kts 315°
2026-04-24 09:51 3.17499 98.93143 7498 ft 308 kts 315°
2026-04-24 09:51 3.19005 98.91638 7144 ft 305 kts 316°
2026-04-24 09:52 3.20511 98.90140 6768 ft 302 kts 316°
2026-04-24 09:52 3.21989 98.88673 6387 ft 300 kts 316°
2026-04-24 09:52 3.23480 98.87192 6002 ft 299 kts 316°
2026-04-24 09:52 3.24955 98.85722 5618 ft 297 kts 316°
2026-04-24 09:53 3.26415 98.84265 5239 ft 295 kts 316°
2026-04-24 09:53 3.27867 98.82816 4851 ft 293 kts 316°
2026-04-24 09:53 3.29269 98.81415 4507 ft 282 kts 316°
2026-04-24 09:53 3.30632 98.80053 4162 ft 271 kts 316°
2026-04-24 09:54 3.31942 98.78764 4059 ft 252 kts 317°
2026-04-24 09:54 3.33157 98.77604 4074 ft 235 kts 318°
2026-04-24 09:54 3.34346 98.76481 4074 ft 235 kts 318°
2026-04-24 09:54 3.35530 98.75359 4073 ft 231 kts 318°
2026-04-24 09:55 3.36658 98.74281 3981 ft 215 kts 318°
2026-04-24 09:55 3.37716 98.73270 3784 ft 207 kts 318°
2026-04-24 09:55 3.38740 98.72291 3562 ft 199 kts 318°
2026-04-24 09:55 3.39717 98.71358 3362 ft 189 kts 318°
2026-04-24 09:56 3.40638 98.70479 3270 ft 175 kts 319°
2026-04-24 09:56 3.41501 98.69655 3244 ft 169 kts 319°
2026-04-24 09:56 3.42357 98.68872 3182 ft 162 kts 326°
2026-04-24 09:56 3.43357 98.68412 3139 ft 156 kts 355°
2026-04-24 09:57 3.44411 98.68427 3095 ft 150 kts 13°
2026-04-24 09:57 3.45389 98.68780 3066 ft 146 kts 31°
2026-04-24 09:57 3.46136 98.69377 3034 ft 131 kts 51°
2026-04-24 09:57 3.46716 98.70091 3064 ft 135 kts 49°
2026-04-24 09:58 3.47379 98.70758 3055 ft 133 kts 47°
2026-04-24 09:58 3.48015 98.71422 3053 ft 134 kts 48°
2026-04-24 09:58 3.48686 98.72118 3051 ft 139 kts 46°
2026-04-24 09:58 3.49365 98.72792 3041 ft 135 kts 46°
2026-04-24 09:59 3.50032 98.73455 3045 ft 135 kts 46°
2026-04-24 09:59 3.50702 98.74116 3039 ft 134 kts 45°
2026-04-24 09:59 3.51269 98.74854 3042 ft 135 kts 67°
2026-04-24 09:59 3.51414 98.75775 3042 ft 135 kts 96°
2026-04-24 10:00 3.51067 98.76641 3047 ft 139 kts 125°
2026-04-24 10:00 3.50304 98.77248 3047 ft 142 kts 154°
2026-04-24 10:00 3.49323 98.77412 3048 ft 146 kts 183°
2026-04-24 10:00 3.48376 98.77033 3058 ft 154 kts 220°
2026-04-24 10:01 3.47787 98.76102 3054 ft 164 kts 257°
2026-04-24 10:01 3.47847 98.74976 3069 ft 162 kts 294°
2026-04-24 10:01 3.48529 98.74116 3084 ft 158 kts 329°
2026-04-24 10:01 3.49558 98.73819 3082 ft 153 kts
2026-04-24 10:02 3.50541 98.74167 3083 ft 150 kts 38°
2026-04-24 10:02 3.51333 98.74847 3027 ft 150 kts 43°
2026-04-24 10:02 3.52116 98.75553 2793 ft 151 kts 44°
2026-04-24 10:02 3.52877 98.76279 2558 ft 152 kts 45°
2026-04-24 10:03 3.53632 98.77022 2432 ft 156 kts 45°
2026-04-24 10:03 3.54413 98.77792 2185 ft 155 kts 45°
2026-04-24 10:03 3.55167 98.78536 1993 ft 154 kts 45°
2026-04-24 10:03 3.55939 98.79300 1788 ft 154 kts 45°
2026-04-24 10:04 3.56699 98.80051 1589 ft 154 kts 45°
2026-04-24 10:04 3.57463 98.80808 1387 ft 153 kts 45°
2026-04-24 10:04 3.58215 98.81548 1193 ft 152 kts 45°
2026-04-24 10:04 3.58962 98.82288 998 ft 151 kts 45°
2026-04-24 10:05 3.59709 98.83027 804 ft 150 kts 45°
2026-04-24 10:05 3.60457 98.83761 639 ft 148 kts 43°
2026-04-24 10:05 3.61196 98.84480 434 ft 150 kts 45°
2026-04-24 10:05 3.61928 98.85226 249 ft 147 kts 45°
2026-04-24 10:06 3.62654 98.85935 72 ft 145 kts 44°
2026-04-24 10:06 3.63689 98.86960 32 ft 45 kts 44°
2026-04-24 10:06 3.63924 98.87192 32 ft 42 kts 45°
2026-04-24 10:07 3.64071 98.87386 32 ft 33 kts 64°
2026-04-24 10:07 3.64113 98.87514 32 ft 6 kts 74°
2026-04-24 10:07 3.64114 98.87517 32 ft 0 kts 74°
2026-04-24 10:08 3.64118 98.87530 32 ft 7 kts 74°
2026-04-24 10:08 3.64133 98.87585 32 ft 7 kts 74°
2026-04-24 10:08 3.64149 98.87635 32 ft 7 kts 66°
2026-04-24 10:08 3.64182 98.87693 32 ft 11 kts 55°
2026-04-24 10:09 3.64234 98.87753 32 ft 11 kts 44°
2026-04-24 10:09 3.64290 98.87807 32 ft 10 kts 43°
2026-04-24 10:09 3.64344 98.87862 32 ft 11 kts 47°
2026-04-24 10:09 3.64409 98.87930 32 ft 15 kts 50°
2026-04-24 10:10 3.64384 98.88019 32 ft 14 kts 135°
2026-04-24 10:10 3.64316 98.88087 32 ft 13 kts 134°
2026-04-24 10:10 3.64250 98.88153 32 ft 13 kts 134°
2026-04-24 10:10 3.64194 98.88205 32 ft 7 kts 167°
2026-04-24 10:11 3.64177 98.88202 32 ft 0 kts 208°
2026-04-24 10:11 3.64146 98.88181 32 ft 12 kts 212°
2026-04-24 10:12 3.64064 98.88210 32 ft 16 kts 135°
2026-04-24 10:12 3.63974 98.88299 32 ft 19 kts 134°
2026-04-24 10:12 3.63880 98.88397 32 ft 19 kts 135°
2026-04-24 10:12 3.63787 98.88444 32 ft 13 kts 206°
2026-04-24 10:13 3.63711 98.88378 32 ft 17 kts 225°
2026-04-24 10:13 3.63619 98.88284 32 ft 18 kts 226°
2026-04-24 10:13 3.63624 98.88226 32 ft 7 kts 307°
2026-04-24 10:13 3.63658 98.88183 32 ft 7 kts 314°
2026-04-24 10:14 3.63696 98.88147 32 ft 7 kts 316°
2026-04-24 10:14 3.63729 98.88115 32 ft 6 kts 316°
2026-04-24 10:14 3.63760 98.88085 32 ft 6 kts 314°
2026-04-24 10:14 3.63764 98.88050 32 ft 4 kts 236°
2026-04-24 10:15 3.63742 98.88053 32 ft 3 kts 150°
2026-04-24 10:15 3.63610 98.88133 35 ft 0 kts 150°
2026-04-24 10:15 3.63788 98.88063 35 ft 0 kts 150°